Temperature
6 7 7 7 7 7 6 5 5 5 6 8 8 8 9 9 9 8 7 6 6 6 6 6 6 6 7 7 7 8 8 8 8 8 8 7 7 6 6 5 5 4 4 4
6 7 7 6 7 7 7 7 7 7 7 9 9 9 9 9 8 7 6 5 5 5 5 5 5 5 5 6 6 6 6 7 7 6 6 5 5 4 4 3 3 3 3 3
5 6 7 6 7 7 7 7 7 7 8 9 9 9 8 8 7 6 5 5 4 4 4 5 5 5 5 5 4 5 5 4 4 4 4 3 3 3 2 2 2 2 2 2
6 6 6 7 9 8 8 8 8 8 9 9 9 9 8 7 6 6 5 4 4 4 4 4 4 4 4 3 3 3 3 2 2 2 2 2 1 1 2 2 2 2 1 1
6 6 6 7 9 9 8 8 9 9 9 9 9 7 7 6 6 5 4 4 4 3 3 3 3 3 3 2 2 2 2 1 1 1 1 1 1 1 1 1 1 1 1 0
6 6 5 8 9 9 9 8 9 9 8 8 7 7 6 6 5 5 4 3 3 3 3 3 2 2 2 2 1 1 1 1 0 1 1 1 1 1 1 1 0 0 -0 -0
6 6 6 8 9 9 8 9 9 9 9 8 7 7 6 5 5 4 3 3 2 2 2 2 1 1 2 1 1 1 0 0 0 0 0 0 0 0 0 0 -0 -0 -1 -1
6 6 6 8 8 8 9 10 9 9 9 8 7 6 5 5 4 3 3 2 2 2 1 1 1 1 1 1 0 0 0 0 0 0 0 0 0 -0 -0 -0 -0 -1 -1 -1
6 7 8 9 9 10 10 9 9 9 8 7 6 5 5 4 3 3 2 2 1 1 1 0 0 0 1 0 0 0 0 0 0 0 -0 -0 -0 -0 -0 -1 -1 -1 -2 -2
6 6 7 9 9 9 9 9 9 8 7 6 6 5 4 3 3 2 1 1 1 0 0 0 0 0 1 1 0 0 0 0 -0 -0 -0 -0 -1 -1 -1 -1 -1 -2 -2 -3
6 7 8 9 9 9 9 8 8 7 6 6 5 5 4 3 2 2 1 1 1 1 1 1 0 0 0 1 1 0 0 0 0 -0 -0 -1 -1 -1 -2 -2 -2 -3 -3 -4
6 7 7 8 9 9 8 8 7 6 6 5 5 5 4 3 2 2 1 1 1 1 1 1 1 1 1 1 1 1 1 0 -0 -0 -1 -1 -1 -2 -2 -3 -3 -3 -4 -4
8 8 8 8 8 8 7 7 6 5 5 4 4 4 3 3 2 2 1 1 1 1 1 1 1 1 1 1 0 1 0 0 -0 -1 -1 -1 -2 -2 -3 -3 -4 -4 -5 -5
7 7 7 7 7 7 6 6 5 5 4 4 3 3 2 2 2 1 1 1 1 1 1 1 1 1 0 0 0 0 -0 -0 -1 -1 -1 -2 -2 -3 -3 -4 -4 -5 -5 -6
6 6 6 6 6 6 5 5 4 4 3 3 2 2 2 2 1 1 1 1 1 1 1 1 1 0 0 -0 -0 -0 -1 -1 -1 -2 -2 -2 -3 -3 -4 -4 -5 -5 -6 -6
4 5 5 5 5 5 4 4 3 3 2 2 2 1 1 1 1 1 0 0 0 1 0 0 0 0 -0 -0 -1 -1 -1 -1 -2 -2 -2 -3 -3 -4 -4 -5 -5 -6 -6 -7
2 3 4 4 4 4 3 3 3 3 2 2 2 1 1 1 0 0 0 0 0 0 0 0 0 -0 -1 -1 -1 -1 -1 -2 -2 -3 -3 -3 -4 -4 -5 -5 -6 -7 -7 -8
2 2 3 3 4 4 3 3 3 2 2 2 1 1 1 1 1 0 0 0 -0 -0 -0 -0 -0 -1 -1 -1 -1 -1 -2 -2 -2 -3 -3 -4 -4 -5 -5 -6 -7 -7 -8 -8
2 2 3 3 4 4 3 3 2 2 2 1 1 1 1 1 1 1 0 0 0 0 -0 -1 -1 -1 -1 -1 -1 -2 -2 -2 -3 -3 -4 -4 -5 -5 -6 -7 -7 -8 -8 -8
2 2 3 3 3 3 3 3 2 2 2 1 1 1 1 1 1 0 0 0 0 0 -0 -1 -1 -1 -1 -2 -2 -2 -2 -3 -3 -4 -4 -5 -5 -6 -7 -7 -7 -8 -8 -8
1 1 2 2 2 2 2 2 2 2 2 1 1 1 1 1 1 1 1 0 0 -0 -1 -1 -1 -1 -2 -2 -2 -3 -3 -3 -4 -4 -5 -5 -6 -7 -7 -7 -8 -8 -8 -9
1 1 1 1 1 1 1 1 1 1 1 1 1 1 1 1 0 0 0 1 0 -0 -1 -1 -1 -2 -2 -2 -3 -3 -3 -4 -4 -5 -5 -6 -6 -7 -7 -8 -8 -8 -9 -9
0 0 0 0 0 1 1 0 0 0 1 1 1 1 1 1 1 1 0 -0 -0 -1 -1 -1 -2 -2 -2 -3 -3 -3 -4 -4 -5 -5 -6 -6 -7 -7 -8 -8 -8 -9 -9 -9
-0 -0 -0 -0 -0 -0 -0 -0 -0 -0 -0 -0 0 0 0 0 0 0 0 -0 -1 -1 -1 -2 -2 -2 -3 -3 -3 -4 -4 -5 -5 -6 -6 -7 -7 -8 -8 -8 -8 -9 -9 -9
-1 -1 -1 -1 -1 -1 -1 -1 -1 -1 -1 -1 -1 -0 -0 0 1 0 -0 -1 -1 -1 -2 -2 -3 -3 -3 -3 -4 -4 -5 -5 -5 -6 -6 -7 -7 -8 -8 -8 -8 -9 -9 -9
-2 -2 -2 -2 -2 -2 -2 -2 -2 -2 -2 -1 -1 -1 -1 -1 -1 -1 -1 -1 -1 -2 -2 -2 -3 -3 -3 -4 -4 -5 -5 -5 -6 -6 -7 -7 -7 -8 -8 -8 -8 -9 -9 -9
-2 -2 -2 -2 -2 -2 -2 -2 -2 -2 -2 -2 -1 -1 -1 -1 -1 -1 -1 -2 -2 -2 -3 -3 -3 -4 -4 -4 -5 -5 -5 -6 -6 -7 -7 -7 -8 -8 -8 -8 -8 -9 -9 -9
Wind_Speed
4 4 5 7 9 12 14 12 10 10 12 19 16 15 14 12 11 10 8 6 7 7 6 5 4 4 4 5 7 8 11 12 13 13 13 14 14 14 14 14 15 14 13 12
3 5 7 8 12 15 16 15 19 19 22 19 13 11 10 10 10 8 7 5 6 6 5 4 4 4 6 7 8 10 11 12 13 14 15 14 14 15 15 14 14 13 12 11
3 4 3 7 11 14 10 10 11 17 18 14 13 12 9 8 8 7 4 4 4 4 4 3 4 5 7 8 10 12 12 13 13 15 15 14 15 15 14 13 12 11 10 9
2 3 6 7 4 7 10 12 13 12 11 10 11 9 6 3 4 4 2 2 2 3 4 5 7 8 10 11 12 13 13 14 14 15 15 14 14 14 13 11 10 9 8 8
1 3 7 8 4 5 5 7 7 9 9 8 6 5 3 2 2 2 2 2 3 4 6 8 9 10 12 13 13 14 14 13 13 14 15 14 13 12 10 10 9 7 6 6
3 3 5 6 3 1 2 4 3 4 6 6 4 4 3 2 3 4 5 5 5 6 8 9 9 10 12 13 13 13 13 13 13 13 13 12 11 10 8 8 8 7 6 5
5 5 7 8 4 2 1 4 4 5 6 5 4 4 1 4 4 5 6 6 7 8 8 8 8 11 12 12 12 12 13 13 12 12 11 11 10 8 8 7 7 6 5 4
5 6 8 5 3 4 6 5 5 6 6 5 4 2 3 4 5 6 7 7 8 8 8 8 9 11 13 12 12 12 13 13 12 10 9 9 9 8 7 7 7 5 5 4
8 9 6 3 5 5 4 5 6 5 4 4 4 4 4 5 6 6 7 7 8 9 9 8 8 10 12 11 11 12 12 12 10 10 8 7 8 7 6 5 5 4 3 3
5 8 8 8 6 5 4 5 5 4 4 4 5 5 6 6 7 7 7 7 8 9 9 9 8 10 10 10 11 12 12 10 9 9 8 6 5 5 5 4 4 3 3 2
6 8 7 6 4 3 2 2 2 3 2 4 6 6 7 7 8 8 7 7 8 8 9 10 9 10 9 9 10 11 10 9 8 7 7 6 5 4 4 3 4 4 2 2
6 6 4 5 3 2 3 3 3 2 1 2 5 7 8 8 7 8 8 8 9 9 10 10 10 9 8 8 10 11 10 8 6 6 6 5 5 5 7 5 7 6 3 1
5 5 5 4 2 1 3 2 1 1 2 3 5 7 9 9 8 8 9 9 9 10 9 10 10 9 8 8 8 8 9 7 6 6 5 5 4 5 4 4 6 6 6 5
4 3 4 3 3 1 1 2 3 3 3 5 6 8 9 9 9 9 9 9 10 10 10 9 9 8 7 8 8 8 8 8 7 5 5 5 4 4 3 3 2 3 5 7
6 5 4 2 1 2 2 3 4 4 4 5 6 8 9 10 10 10 10 10 11 10 10 9 9 8 7 8 9 9 7 6 5 5 5 5 4 4 3 3 2 1 2 4
9 6 3 2 2 3 3 4 4 4 5 5 6 8 9 10 10 10 10 10 11 11 10 9 9 7 7 9 9 7 6 10 8 5 5 4 4 3 3 2 2 2 3 3
6 5 4 4 4 4 5 5 6 6 6 7 8 9 11 11 11 10 9 8 8 8 8 9 8 7 7 8 8 7 6 7 9 6 4 4 3 3 2 1 1 2 3 5
7 8 7 7 6 6 6 6 6 7 7 7 9 10 11 12 11 11 10 10 10 9 7 7 8 8 8 7 7 6 6 5 4 4 4 3 3 2 2 1 1 2 3 5
9 8 7 5 4 5 5 6 7 8 9 10 10 10 9 9 10 11 11 11 11 10 6 7 12 9 8 8 8 6 6 6 5 4 3 4 3 2 1 1 2 3 4 4
9 8 6 4 1 2 5 6 8 9 9 10 10 10 10 10 11 11 10 7 5 5 8 9 9 8 7 8 9 5 6 6 5 4 3 2 2 1 1 2 2 3 4 4
10 9 6 4 3 2 4 7 9 9 9 10 11 11 11 10 10 10 10 7 4 8 9 12 8 6 6 7 8 5 5 5 4 3 2 2 1 0 1 2 3 4 4 5
9 7 6 4 2 2 3 5 7 9 9 9 9 10 11 11 10 7 5 6 8 12 8 6 6 8 10 9 5 5 5 4 4 3 2 1 1 1 2 3 4 4 5 5
8 6 5 3 1 1 3 4 6 7 8 10 11 12 11 10 9 9 7 6 7 12 8 6 9 13 12 7 5 5 4 4 3 2 1 1 1 2 3 4 4 5 5 6
7 6 5 3 2 2 3 3 4 5 6 6 7 8 9 9 5 3 5 13 15 13 7 10 14 13 11 5 5 4 4 3 2 2 1 1 2 2 3 4 4 5 5 7
6 5 4 3 1 0 2 4 5 6 7 6 6 6 5 4 5 7 8 10 15 13 7 10 13 12 7 5 4 4 3 2 3 2 2 2 2 3 4 4 5 5 6 6
6 5 4 3 2 1 3 4 4 5 6 7 6 5 5 5 7 8 8 9 11 12 8 6 7 7 5 4 4 3 3 2 1 1 2 3 3 4 4 5 6 6 6 7
6 4 3 2 1 1 3 4 5 6 6 7 7 6 7 8 8 8 9 8 8 7 6 5 5 5 4 4 3 3 2 1 2 2 3 3 4 4 5 6 5 6 6 7
Wind_Direction
227 219 197 213 213 205 211 213 224 247 256 274 286 293 296 297 302 305 310 320 326 326 327 333 354 16 48 65 80 100 112 118 120 120 120 121 123 123 122 121 119 117 114 111
281 245 231 240 232 222 225 230 240 257 270 273 280 283 288 298 306 307 310 319 328 334 345 352 17 48 74 80 87 96 103 108 112 114 115 115 115 115 113 111 111 111 113 115
274 305 323 262 231 218 214 217 220 245 256 273 288 292 295 303 307 303 305 319 331 343 355 14 53 82 90 94 95 95 98 101 105 109 109 109 111 110 110 108 107 108 110 113
280 337 249 248 243 200 213 237 231 241 262 276 280 290 293 306 306 313 328 347 8 28 44 57 75 87 92 93 95 97 97 98 101 104 105 105 106 106 106 107 110 112 115 119
220 266 280 289 261 188 201 260 236 237 261 277 297 305 286 17 26 36 59 64 64 71 80 80 87 95 97 95 96 97 98 100 102 106 107 107 107 107 109 112 113 116 120 122
206 248 256 263 283 154 113 274 244 235 268 286 310 298 281 92 76 77 78 77 78 80 86 88 91 99 101 101 101 102 103 104 104 106 109 111 112 112 111 114 117 117 112 114
220 242 266 258 249 119 224 264 264 259 266 269 250 240 200 103 94 96 92 90 89 86 86 93 100 102 102 102 103 107 107 105 105 106 109 112 110 110 114 114 111 108 104 92
193 218 253 257 151 195 236 264 265 262 259 248 227 168 126 119 117 111 103 100 99 96 91 91 101 106 105 105 109 109 108 107 107 108 112 115 115 112 111 115 112 108 102 84
202 222 245 242 231 258 265 269 271 261 257 220 193 178 150 134 131 124 118 116 112 110 104 98 102 112 113 113 114 113 111 111 112 110 109 115 119 119 112 108 110 107 102 90
247 260 263 265 262 266 263 260 273 268 260 213 189 169 151 142 138 135 131 129 126 123 119 113 109 111 117 121 121 118 117 116 115 114 109 101 98 105 111 114 113 113 111 106
249 272 287 275 249 256 268 281 291 295 271 200 168 160 153 146 143 140 137 133 132 129 125 123 120 118 122 124 124 120 118 118 116 112 111 102 93 99 111 118 141 140 148 161
242 249 248 268 256 231 238 257 261 274 297 157 159 153 146 142 138 136 136 133 130 129 129 129 127 124 125 127 129 129 127 122 116 114 112 111 106 88 82 93 91 94 115 123
267 282 259 264 260 226 230 242 233 195 163 139 136 141 138 135 134 132 132 133 133 133 132 130 128 128 129 130 129 128 129 126 120 121 122 120 117 114 96 61 63 59 42 24
318 319 282 266 256 225 147 114 98 85 93 117 125 129 130 130 131 132 133 132 128 127 126 127 126 126 128 125 121 118 118 124 125 122 121 117 112 110 110 103 57 5 5 9
335 320 286 282 168 135 127 123 116 111 109 108 120 130 134 136 135 132 131 132 129 128 129 129 128 125 123 124 123 123 120 119 115 113 109 107 107 103 97 91 75 9 340 345
316 310 289 249 226 201 175 167 162 159 145 134 132 132 131 128 128 129 133 138 139 140 140 137 134 132 128 126 123 117 119 128 123 115 110 107 105 102 94 80 53 8 341 322
311 303 290 275 251 232 213 199 182 169 156 147 142 134 130 128 128 130 130 128 127 128 131 134 133 128 126 126 124 123 118 125 124 115 112 114 110 104 97 78 27 344 322 321
293 286 277 267 250 231 214 189 172 163 156 148 141 140 142 143 143 139 133 124 118 112 113 124 129 125 121 120 121 122 120 118 120 120 116 115 111 101 88 54 358 333 319 323
321 313 304 286 248 214 191 173 164 156 148 147 147 146 143 140 138 138 137 136 139 139 144 142 138 128 124 132 128 119 121 120 116 111 107 111 100 79 56 7 332 321 316 319
342 344 346 350 25 151 156 151 149 149 151 149 145 142 140 142 142 142 139 137 146 146 144 139 131 127 127 135 129 120 123 124 124 121 113 108 102 62 355 331 323 314 312 312
348 352 1 15 36 87 137 148 153 155 155 154 154 153 149 146 145 145 143 140 139 137 141 141 135 133 132 135 129 122 124 126 128 129 127 123 109 330 317 317 317 313 309 309
347 351 357 10 45 84 116 137 148 152 152 150 147 146 148 149 147 139 128 145 151 150 141 138 139 145 146 135 123 126 128 129 131 131 134 152 232 284 296 303 302 304 304 303
345 349 355 1 24 95 111 129 145 154 158 160 161 161 161 160 160 157 154 152 151 154 146 149 156 151 143 131 130 131 133 135 139 149 173 216 251 269 281 290 292 295 297 299
345 347 349 358 40 104 127 131 134 142 147 150 155 158 156 152 148 136 136 156 161 154 152 159 156 151 143 132 132 134 138 145 157 180 212 241 258 269 275 282 287 290 291 294
337 336 341 355 8 121 149 137 130 135 138 140 141 143 146 149 154 152 148 156 160 152 148 159 157 151 140 136 142 147 155 178 196 202 214 244 262 271 275 278 281 286 289 289
328 326 318 304 286 217 174 164 165 163 159 156 153 148 139 129 134 143 146 149 153 152 147 138 142 145 140 144 149 156 166 186 223 231 241 256 265 271 275 280 284 283 285 286
323 322 321 318 298 216 192 185 181 181 178 173 165 160 153 149 150 150 148 148 146 145 142 137 136 141 146 149 155 161 172 195 225 245 255 259 264 268 274 278 281 283 286 286
Height
1460 1459 1460 1461 1462 1464 1466 1468 1471 1461 1454 1441 1437 1435 1432 1428 1424 1421 1419 1416 1413 1410 1407 1404 1401 1398 1397 1396 1396 1397 1399 1402 1406 1410 1415 1420 1425 1429 1434 1439 1445 1451 1456 1461
1459 1456 1457 1458 1455 1456 1457 1457 1456 1452 1445 1435 1433 1431 1428 1424 1422 1419 1416 1414 1411 1409 1406 1403 1400 1398 1397 1397 1398 1399 1402 1404 1407 1411 1416 1420 1424 1429 1434 1440 1446 1452 1457 1462
1462 1457 1455 1456 1445 1446 1448 1446 1446 1445 1438 1432 1431 1428 1424 1422 1419 1417 1415 1413 1410 1408 1405 1402 1400 1400 1399 1400 1401 1402 1405 1407 1410 1413 1418 1422 1426 1431 1436 1442 1448 1454 1458 1462
1461 1460 1461 1444 1434 1435 1438 1436 1436 1434 1431 1429 1427 1424 1421 1420 1418 1415 1413 1411 1409 1407 1405 1403 1402 1402 1402 1403 1404 1406 1408 1411 1414 1417 1421 1425 1430 1435 1440 1446 1451 1455 1459 1462
1461 1460 1454 1440 1432 1432 1435 1433 1429 1429 1427 1426 1424 1421 1419 1418 1416 1415 1412 1411 1409 1408 1407 1406 1405 1405 1405 1406 1408 1409 1412 1415 1418 1422 1425 1430 1435 1439 1444 1449 1453 1457 1460 1462
1458 1458 1456 1438 1430 1429 1433 1432 1427 1426 1425 1423 1422 1423 1419 1417 1415 1414 1412 1411 1410 1409 1408 1408 1408 1409 1409 1410 1412 1414 1417 1420 1423 1427 1431 1435 1439 1444 1448 1452 1455 1458 1460 1462
1454 1454 1447 1433 1429 1430 1436 1431 1425 1423 1422 1421 1421 1420 1418 1416 1414 1413 1412 1411 1411 1411 1410 1411 1411 1412 1413 1414 1416 1419 1422 1425 1428 1432 1436 1440 1444 1448 1451 1455 1457 1459 1460 1460
1450 1451 1446 1428 1428 1430 1428 1423 1422 1420 1419 1418 1417 1416 1415 1414 1414 1413 1413 1412 1413 1412 1413 1413 1414 1415 1416 1418 1421 1423 1426 1429 1433 1437 1441 1444 1448 1451 1454 1456 1458 1459 1459 1459
1442 1438 1428 1426 1425 1424 1423 1421 1419 1417 1416 1415 1414 1413 1413 1413 1413 1413 1413 1414 1414 1415 1415 1416 1418 1419 1420 1422 1425 1427 1431 1434 1438 1441 1445 1448 1451 1453 1455 1457 1458 1458 1458 1457
1435 1429 1425 1423 1422 1421 1420 1418 1416 1415 1413 1412 1411 1411 1412 1412 1413 1413 1414 1415 1416 1417 1417 1419 1421 1423 1424 1426 1429 1432 1435 1438 1442 1445 1448 1451 1453 1455 1456 1457 1457 1457 1456 1455
1430 1425 1422 1419 1419 1418 1417 1415 1413 1412 1410 1410 1409 1410 1410 1411 1412 1414 1414 1416 1417 1418 1420 1421 1424 1426 1429 1431 1434 1436 1439 1442 1445 1448 1450 1452 1454 1455 1456 1456 1456 1455 1454 1453
1426 1422 1421 1418 1417 1416 1414 1413 1411 1410 1408 1408 1408 1408 1409 1411 1412 1414 1415 1417 1418 1420 1422 1424 1427 1429 1432 1435 1438 1441 1443 1446 1448 1450 1452 1453 1454 1455 1455 1455 1454 1453 1452 1450
1421 1419 1418 1416 1414 1413 1412 1410 1409 1408 1407 1407 1407 1408 1409 1410 1412 1414 1416 1418 1420 1422 1424 1427 1429 1432 1435 1439 1442 1444 1446 1448 1450 1451 1453 1454 1454 1454 1454 1453 1452 1451 1449 1447
1418 1417 1414 1413 1412 1411 1409 1408 1407 1406 1406 1406 1406 1407 1408 1410 1412 1414 1416 1419 1421 1424 1427 1429 1432 1435 1438 1441 1444 1447 1449 1450 1451 1453 1453 1454 1454 1453 1453 1452 1451 1449 1447 1445
1415 1414 1413 1410 1409 1408 1407 1406 1405 1405 1405 1405 1406 1407 1408 1410 1412 1414 1417 1420 1423 1426 1429 1432 1434 1438 1441 1444 1446 1448 1450 1451 1452 1453 1453 1453 1453 1452 1451 1450 1448 1446 1444 1442
1412 1411 1409 1408 1407 1406 1405 1404 1404 1404 1404 1405 1406 1407 1409 1411 1413 1415 1418 1421 1424 1427 1430 1433 1436 1439 1442 1445 1448 1449 1451 1452 1452 1452 1452 1452 1451 1450 1449 1447 1446 1444 1442 1440
1410 1408 1406 1405 1404 1403 1403 1403 1403 1403 1404 1405 1406 1407 1409 1411 1414 1416 1419 1423 1426 1429 1432 1435 1438 1441 1444 1446 1448 1450 1451 1451 1451 1451 1451 1450 1449 1448 1447 1445 1443 1441 1439 1437
1408 1406 1404 1403 1402 1401 1400 1401 1401 1402 1403 1404 1406 1408 1409 1412 1414 1417 1420 1424 1427 1431 1434 1437 1440 1443 1445 1447 1449 1450 1450 1450 1450 1450 1450 1449 1447 1446 1445 1443 1441 1439 1437 1435
1404 1402 1401 1400 1399 1398 1398 1398 1400 1401 1402 1404 1406 1408 1410 1413 1416 1419 1422 1425 1428 1431 1435 1438 1441 1444 1445 1447 1448 1449 1449 1449 1449 1449 1448 1447 1446 1444 1442 1441 1439 1437 1434 1432
1402 1400 1398 1397 1396 1396 1396 1397 1399 1400 1402 1404 1406 1408 1411 1414 1417 1420 1423 1426 1430 1433 1436 1438 1441 1443 1445 1447 1448 1448 1448 1448 1448 1447 1446 1445 1444 1442 1440 1438 1436 1434 1432 1430
1401 1399 1397 1396 1396 1395 1396 1397 1398 1399 1401 1404 1406 1408 1411 1414 1417 1421 1424 1427 1431 1434 1437 1439 1441 1443 1445 1446 1447 1447 1447 1446 1446 1445 1444 1443 1441 1440 1438 1436 1434 1432 1430 1428
1401 1399 1398 1396 1396 1395 1396 1397 1398 1399 1401 1403 1406 1409 1412 1414 1418 1421 1425 1428 1431 1434 1436 1439 1441 1443 1444 1445 1445 1445 1445 1445 1444 1443 1442 1441 1439 1438 1436 1434 1432 1430 1428 1425
1402 1400 1398 1397 1396 1396 1396 1396 1397 1399 1401 1403 1406 1409 1412 1415 1418 1421 1424 1428 1431 1434 1436 1438 1440 1442 1443 1443 1444 1444 1443 1443 1442 1441 1440 1439 1437 1435 1434 1432 1430 1427 1425 1423
1402 1400 1399 1397 1396 1396 1396 1396 1397 1399 1401 1403 1406 1409 1412 1415 1418 1422 1425 1428 1431 1433 1436 1438 1439 1441 1441 1442 1442 1442 1442 1441 1440 1439 1438 1436 1435 1433 1431 1429 1427 1425 1423 1421
1401 1400 1398 1397 1396 1396 1396 1396 1396 1398 1400 1402 1405 1408 1412 1415 1418 1421 1424 1427 1430 1432 1434 1436 1438 1439 1440 1440 1440 1440 1439 1439 1438 1436 1435 1433 1432 1430 1428 1426 1424 1422 1420 1418
1400 1399 1398 1397 1396 1395 1395 1395 1395 1396 1398 1400 1403 1406 1410 1413 1417 1420 1423 1426 1428 1431 1433 1434 1436 1437 1438 1438 1438 1438 1437 1436 1435 1434 1432 1431 1429 1427 1425 1423 1421 1419 1417 1415
1399 1397 1396 1395 1394 1394 1393 1394 1394 1395 1396 1399 1401 1404 1407 1411 1414 1418 1421 1424 1426 1428 1431 1432 1434 1435 1435 1436 1436 1435 1434 1434 1432 1431 1430 1428 1426 1425 1423 1421 1419 1417 1414 1412